Scottsdale, AZ

4:06 PM MST on April 26, 2017 (GMT -0700)
Scottsdale

Weather History for KSDL - May, 2014

Change the Weather History Date:

Saturday, May 24, 2014

  Actual Average Record
Temperature  
Mean Temperature 77 °F -  
Max Temperature 88 °F 94 °F 107 °F (2001)
Min Temperature 66 °F 69 °F 57 °F (2008)
Cooling Degree Days 12    
Growing Degree Days 27 (Base 50)    
Moisture  
Dew Point 37 °F    
Average Humidity 25    
Maximum Humidity 40    
Minimum Humidity 14    
Precipitation  
Precipitation 0.00 in - - ()
Sea Level Pressure  
Sea Level Pressure 29.83 in    
Wind  
Wind Speed 3 mph (SSW)    
Max Wind Speed 9 mph    
Max Gust Speed 18 mph    
Visibility 10 miles    
Events      
Averages and records for this station are not official NWS values.
T = Trace of Precipitation, MM = Missing Value Source: NWS Daily Summary

Daily Weather History Graph

Daily Weather History Graph

Search for Another Location

Airport or City:

Trip Planner

Search our weather history database for the weather conditions in past years. The results will help you decide how hot, cold, wet, or windy it might be!

Date:

Astronomy

May. 24, 2014 Rise Set
Actual Time 5:21 AM MST 7:27 PM MST
Civil Twilight 4:53 AM MST 7:55 PM MST
Nautical Twilight 4:19 AM MST 8:30 PM MST
Astronomical Twilight 3:42 AM MST 9:07 PM MST
Moon 2:40 AM MST (5/24) 3:39 PM MST (5/24)
Length of Visible Light 15h 02m
Length of Day
14h 06m
Waning Crescent, 17% of the Moon is Illuminated
May 24
Waning Crescent
May 28
New
Jun 5
First Quarter
Jun 12
Full
Jun 19
Last Quarter

Hourly Weather History & Observations

Time (MST) Temp. Dew Point Humidity Pressure Visibility Wind Dir Wind Speed Gust Speed Precip Events Conditions
12:53 AM 73.0 °F 37.9 °F 28% 29.83 in 10.0 mi Calm Calm - N/A   Clear
1:53 AM 72.0 °F 39.0 °F 30% 29.82 in 10.0 mi Calm Calm - N/A   Clear
2:53 AM 70.0 °F 39.0 °F 32% 29.83 in 10.0 mi Calm Calm - N/A   Clear
3:53 AM 70.0 °F 39.0 °F 32% 29.84 in 10.0 mi Calm Calm - N/A   Clear
4:53 AM 66.0 °F 39.0 °F 37% 29.85 in 10.0 mi Calm Calm - N/A   Clear
5:53 AM 66.0 °F 39.9 °F 38% 29.86 in 10.0 mi Calm Calm - N/A   Clear
6:53 AM 68.0 °F 43.0 °F 40% 29.88 in 10.0 mi SE 3.5 mph - N/A   Clear
7:53 AM 72.0 °F 41.0 °F 33% 29.89 in 10.0 mi SE 5.8 mph - N/A   Clear
8:53 AM 73.9 °F 39.9 °F 29% 29.89 in 10.0 mi South 3.5 mph - N/A   Clear
9:53 AM 77.0 °F 39.9 °F 26% 29.88 in 10.0 mi Calm Calm - N/A   Clear
11:53 AM 82.0 °F 36.0 °F 19% 29.86 in 10.0 mi South 8.1 mph - N/A   Clear
12:53 PM 84.9 °F 36.0 °F 17% 29.84 in 10.0 mi South 8.1 mph - N/A   Clear
1:53 PM 86.0 °F 35.1 °F 16% 29.81 in 10.0 mi SW 9.2 mph - N/A   Clear
2:53 PM 88.0 °F 32.0 °F 14% 29.80 in 10.0 mi WNW 9.2 mph 18.4 mph N/A   Clear
4:53 PM 86.0 °F 33.1 °F 15% 29.77 in 10.0 mi Variable 5.8 mph - N/A   Clear
5:53 PM 88.0 °F 32.0 °F 14% 29.76 in 10.0 mi Variable 6.9 mph - N/A   Clear
6:53 PM 86.0 °F 34.0 °F 16% 29.77 in 10.0 mi SSW 6.9 mph - N/A   Clear
8:53 PM 84.0 °F 36.0 °F 18% 29.78 in 10.0 mi SW 3.5 mph - N/A   Clear
9:53 PM 84.0 °F 37.0 °F 19% 29.80 in 10.0 mi WNW 6.9 mph - N/A   Clear
11:53 PM 81.0 °F 39.0 °F 22% 29.79 in 10.0 mi West 4.6 mph - N/A   Clear